Regional Weather Roundup
Issued by NWS Upton, NY

Current Version | Previous Version | Graphics & Text | Print | Product List | Glossary Off
Versions: 1 2 3 4 5 6 7 8 9 10 11 12 13 14 15 16 17 18 19 20 21 22 23 24 25 26 27 28 29 30 31 32 33 34 35 36 37 38 39 40 41 42 43 44 45 46 47 48 49 50

000
ASUS41 KOKX 072118
RWROKX

REGIONAL WEATHER ROUNDUP
NATIONAL WEATHER SERVICE NEW YORK NY
500 PM EDT TUE JUL 07 2015

NOTE: "FAIR" INDICATES FEW OR NO CLOUDS BELOW 12,000 FEET WITH NO
SIGNIFICANT WEATHER AND/OR OBSTRUCTIONS TO VISIBILITY.

NYZ071-072-176-178-NJZ106-104-072200-
NEW YORK CITY METRO AREA


CITY           SKY/WX    TMP DP  RH WIND       PRES   REMARKS
CENTRAL PARK   MOSUNNY   82  71  69 S7        29.97F
LAGUARDIA APRT MOSUNNY   85  70  60 S13       29.94F
KENNEDY INTL   MOSUNNY   84  72  67 S21       29.95F
NEWARK/LIBERTY PTSUNNY   86  72  62 S7        29.93F HX  92
BRNX BOT. GARD   N/A     82  70  65 E7        29.96R
TETERBORO      MOSUNNY   86  70  58 S12       29.92F HX  90
$$

NYZ177-179-078>081-072200-
LONG ISLAND NEW YORK

CITY           SKY/WX    TMP DP  RH WIND       PRES   REMARKS
FARMINGDALE    MOSUNNY   80  73  79 S16       29.96F
ISLIP          CLOUDY    77  72  84 S14       29.96F
SHIRLEY        CLOUDY    77  72  84 S15       29.99F
WESTHAMPTON    FOG       77  75  93 S12       30.00F VSB 1
MONTAUK POINT    N/A     77  72  84 S8        30.02F
$$

NYZ052-065-067-072200-
HUDSON VALLEY

CITY           SKY/WX    TMP DP  RH WIND       PRES   REMARKS
WHITE PLAINS   MOSUNNY   83  72  69 S13       29.96F
NEWBURGH       MOSUNNY   81  73  78 W16       29.95S
MONTGOMERY     CLOUDY    77  71  82 W5        29.94F
POUGHKEEPSIE   PTSUNNY   83  71  67 S7        29.92S THUNDER
ALBANY         PTSUNNY   81  70  69 S9        29.91F
$$

NJZ001-105-106-008-010-013-015-019>022-104-072200-
NEW JERSEY

CITY           SKY/WX    TMP DP  RH WIND       PRES   REMARKS
NEWARK/LIBERTY PTSUNNY   86  72  62 S7        29.93F HX  92
TETERBORO      MOSUNNY   86  70  58 S12       29.92F HX  90
CALDWELL       PTSUNNY   87  68  52 SW8G17    29.93F HX  90
MORRISTOWN     PTSUNNY   90  72  55 SW16G24   29.94F HX  96
SOMERVILLE     MOSUNNY   87  69  54 S7        29.93S HX  91
SUSSEX         MOSUNNY   81  71  71 VRB3      29.95F
ANDOVER          N/A     80  69  69 SW9       29.97S
TRENTON        MOSUNNY   84  73  69 VRB3      29.95F HX  90
MILLVILLE      MOSUNNY   88  72  58 VRB6      29.98F HX  94
ATLANTIC CITY  MOSUNNY   85  72  65 S13       29.98F HX  91
WRIGHTSTOWN    MOSUNNY   88  71  55 SW16      29.93F HX  94
TOMS RIVER     PTSUNNY   90  70  51 S10G18    29.96F HX  95
BELMAR         PTSUNNY   88  70  55 SW12G17   29.96S HX  92
$$

PAZ047>061-062-071-072200-
EASTERN PENNSYLVANIA

CITY           SKY/WX    TMP DP  RH WIND       PRES   REMARKS
PHILADELPHIA   MOSUNNY   90  67  46 SW15      29.96F HX  93
ALLENTOWN      PTSUNNY   85  71  63 SW8       29.96S HX  90
SCRANTON       PTSUNNY   84  64  50 SW12G20   29.96S
$$

CTZ002-004>006-009-010-012-RIZ004-006-007-MAZ004-011-015-072200-
SOUTHERN NEW ENGLAND
 IN CT

CITY           SKY/WX    TMP DP  RH WIND       PRES   REMARKS
BRADLEY INTL   PTSUNNY   83  71  67 S17G23    29.94S
HARTFORD       MOSUNNY   81  71  71 S14G20    29.95S
DANBURY        MOSUNNY   75  69  81 SE8       29.98F
WTRBRY/OXFORD  CLOUDY    73  66  78 CALM      30.02R THUNDER
BRIDGEPORT     MOSUNNY   83  73  72 S15       29.96F
MERIDEN        MOSUNNY   81  72  74 S12G25    29.96F
NEW HAVEN      PTSUNNY   80  73  79 S10       29.98S
CHESTER        CLOUDY    77  73  88 S12       30.01S
GROTON         FOG       71  69  93 S7        30.00S VSB 3/4
WILLIMANTIC    MOSUNNY   80  71  74 S9        29.99S

 IN RI

CITY           SKY/WX    TMP DP  RH WIND       PRES   REMARKS
PROVIDENCE     PTSUNNY   80  73  79 S15G23    30.01F
BLOCK ISLAND   CLOUDY    75  72  88 S14G22    30.02S
WESTERLY       CLOUDY    75  71  87 S10       30.02F

 IN MA

CITY           SKY/WX    TMP DP  RH WIND       PRES   REMARKS
BOSTON         PTSUNNY   82  70  66 S18G25    29.97F
WORCESTER      PTSUNNY   79  68  69 S17G28    30.01F
WESTFIELD      PTSUNNY   83  72  69 S15G22    29.94F
PROVINCETOWN   SUNNY     79  70  73 S15G22    30.01F
NANTUCKET      MOSUNNY   73  69  87 S12       30.04F
$$

ANZ330-335-338-340-345-350-353-355-072200-
COASTAL MARINE OBSERVATIONS


STATION/POSITION TIME  SKY/WX   TEMP    WIND        PRES    VSBY  WAVE
                                AIR SEA DIR/SP/G                  HT/PER
                 (UTC)          (F)     (DEG/KT/KT) (MB)    (MI)  (FT/S)
NY HARB ENTRANCE 2050            76 74  180/ 14/ 16 1014.0          3/ 4
4S FIRE IS       2003               73                N/A           3/ 8
20S FIRE ISLAND  2050            74 71  190/ 14/ 16 1014.9          3/ 4
GREAT SOUTH BAY  2015            74 77  220/ 12/ 16   N/A
23SW MTP         2050            73 70  200/ 16/ 17 1015.6          2/ 9
HUDSON CANYON    NOT AVBL
KINGS POINT      2000               70                N/A
CENTRAL LI SOUND NOT AVBL
EASTERN LI SOUND 2000            71 65  180/ 10/ 12   N/A
ROBBINS REEF     2018            78     170/ 14/ 16 1012.9
$$


>>>>>>>>>>>>>>>>>>>>>>>>>>>> KEY <<<<<<<<<<<<<<<<<<<<<<<<<<<
>                                                          <
>     SKY/WX - SKY CONDITION/PRESENT WEATHER               <
>     TMP    - TEMPERATURE IN FAHRENHEIT                   <
>     DP     - DEWPOINT IN FAHRENHEIT                      <
>     RH     - RELATIVE HUMIDITY IN PERCENT                <
>     WIND   - DIRECTION AND SPEED IN MPH                  <
>     PRES   - MEAN SEA LEVEL PRESSURE IN INCHES OF HG     <
>     WCI    - WIND CHILL INDEX                            <
>     VSB    - VISIBILITY IN MILES                         <
>     HX     - HEAT INDEX                                  <
>     TC     - TEMPERATURE IN CELSIUS                      <
>     VRB    - VARIABLE WIND DIRECTION                     <
>                                                          <
>>>>>>>>>>>>>>>>>>>>>>>>>>>> KEY <<<<<<<<<<<<<<<<<<<<<<<<<<<




USA.gov is the U.S. government's official web portal to all federal, state and local government web resources and services.